Date String (YYYY-MM-DD hh:mm:ss) UTC,Instrument flags,absolute air pressure of the measurement (hPa),sample flow rate (lpm),inlet stack bypass flow (lpm),air temperature of the measurement (°C),ambient temperature measured by the external sensor (°C),aerosol sample conditioner tube jacket temperature (°C),OPC LED temperature (°C),internal box temperature (°C),relative humidity of the measurement (%),span deviation,mass concentration of particles derived from Lorenz-Mie calculation of OPC scattering (μg/m³),mass concentration of particles derived from Lorenz-Mie calculation of OPC scattering (μg/m³),mass concentration of particles derived from Lorenz-Mie calculation of OPC scattering (μg/m³)
DateTimeUTC,F1_M11,P_M11,Q1_M11,Q2_M11,T1_M11,T2_M11,T3_M11,T4_M11,T5_M11,U1_M11,ZSPAN_M11,X0_M11,X2_M11,X1_M11
2024-01-25 07:00:00,SystemResetWarning,0827.1,5.00,000.00,022.7,021.6,000.0,031.1,024.1,15.8,0000.7,0010.96,0005.31,0004.89
2024-01-25 07:01:00,SystemResetWarning,0827.0,5.00,000.00,022.7,021.6,000.0,031.1,024.1,15.8,0000.6,0010.86,0005.36,0004.96
2024-01-25 07:02:00,SystemResetWarning,0827.0,5.00,000.00,022.7,021.6,000.0,031.1,024.1,15.8,0000.3,0010.66,0005.36,0004.97
2024-01-25 07:03:00,SystemResetWarning,0827.0,4.99,000.00,022.7,021.7,000.0,031.1,024.1,15.8,0000.0,0010.52,0005.30,0004.93
2024-01-25 07:04:00,SystemResetWarning,0827.0,5.00,000.00,022.7,021.7,000.0,031.1,024.1,15.8,0000.0,0009.54,0005.23,0004.88
2024-01-25 07:05:00,SystemResetWarning,0827.0,5.00,000.00,022.7,021.7,000.0,031.1,024.1,15.7,0000.0,0009.42,0005.18,0004.84
2024-01-25 07:06:00,SystemResetWarning,0826.9,5.00,000.00,022.7,021.6,000.0,031.0,024.1,15.7,0000.0,0009.83,0005.17,0004.83
2024-01-25 07:07:00,SystemResetWarning,0827.0,5.00,000.00,022.7,021.6,000.0,031.0,024.1,15.7,0000.0,0009.91,0005.15,0004.82
2024-01-25 07:08:00,SystemResetWarning,0827.0,5.00,000.00,022.7,021.6,000.0,031.0,024.1,15.8,0000.0,0009.78,0005.13,0004.82
2024-01-25 07:09:00,SystemResetWarning,0827.0,5.00,000.00,022.7,021.7,000.0,031.0,024.1,15.7,0000.0,0009.70,0005.12,0004.83
2024-01-25 07:10:00,SystemResetWarning,0827.0,4.99,000.00,022.7,021.7,000.0,031.0,024.1,15.7,0000.8,0009.51,0005.11,0004.84
2024-01-25 07:11:00,SystemResetWarning,0827.0,5.00,000.00,022.7,021.7,000.0,031.0,024.1,15.6,0000.0,0008.98,0005.08,0004.82
2024-01-25 07:12:00,SystemResetWarning,0827.0,5.00,000.00,022.7,021.7,000.0,031.0,024.1,15.5,0000.0,0008.67,0005.05,0004.81
2024-01-25 07:13:00,SystemResetWarning,0827.0,5.00,000.00,022.7,021.7,000.0,031.0,024.1,15.4,0000.0,0008.66,0005.02,0004.79
2024-01-25 07:14:00,SystemResetWarning,0827.0,5.01,000.00,022.7,021.7,000.0,031.0,024.1,15.6,0000.0,0009.75,0005.08,0004.84
2024-01-25 07:15:00,SystemResetWarning,0827.0,5.01,000.00,022.7,021.7,000.0,031.0,024.1,15.7,0001.8,0009.92,0005.15,0004.90
2024-01-25 07:16:00,SystemResetWarning,0827.0,5.00,000.00,022.7,021.8,000.0,031.0,024.1,15.7,0003.5,0010.06,0005.21,0004.94
2024-01-25 07:17:00,SystemResetWarning,0826.9,5.00,000.00,022.7,021.7,000.0,031.0,024.1,15.7,0003.1,0009.84,0005.24,0004.98
2024-01-25 07:18:00,SystemResetWarning,0827.0,4.99,000.00,022.6,021.7,000.0,031.0,024.0,15.7,0002.2,0009.34,0005.30,0005.00
2024-01-25 07:19:00,SystemResetWarning,0826.9,5.00,000.00,022.6,021.7,000.0,031.0,024.0,15.6,0000.0,0009.48,0005.35,0005.03
2024-01-25 07:20:00,SystemResetWarning,0827.0,5.00,000.00,022.6,021.7,000.0,031.0,024.0,15.2,0000.0,0009.55,0005.38,0005.05
2024-01-25 07:21:00,SystemResetWarning,0826.9,5.00,000.00,022.6,021.7,000.0,031.0,024.0,15.2,0000.0,0009.64,0005.41,0005.06
2024-01-25 07:22:00,SystemResetWarning,0826.9,4.99,000.00,022.6,021.7,000.0,031.0,024.0,15.2,0000.0,0009.84,0005.46,0005.08
2024-01-25 07:23:00,SystemResetWarning,0826.9,5.00,000.00,022.6,021.7,000.0,031.0,024.0,15.2,0000.0,0010.39,0005.48,0005.09
2024-01-25 07:24:00,SystemResetWarning,0826.8,5.00,000.00,022.6,021.7,000.0,031.0,024.0,15.2,0000.0,0010.40,0005.50,0005.10
2024-01-25 07:25:00,SystemResetWarning,0826.8,5.00,000.00,022.6,021.7,000.0,031.0,024.0,15.4,0000.0,0009.45,0005.54,0005.12
2024-01-25 07:26:00,SystemResetWarning,0826.8,5.00,000.00,022.6,021.7,000.0,031.0,024.0,15.5,0000.0,0009.37,0005.58,0005.15
2024-01-25 07:27:00,SystemResetWarning,0826.8,5.00,000.00,022.6,021.7,000.0,031.0,024.0,15.6,0000.0,0009.47,0005.64,0005.18
2024-01-25 07:28:00,SystemResetWarning,0826.8,5.00,000.00,022.6,021.6,000.0,031.0,024.0,15.6,0000.0,0009.48,0005.66,0005.20
2024-01-25 07:29:00,SystemResetWarning,0826.8,5.00,000.00,022.6,021.6,000.0,031.0,024.0,14.9,0000.0,0009.45,0005.60,0005.18
2024-01-25 07:30:00,SystemResetWarning,0826.8,5.00,000.00,022.6,021.6,000.0,031.0,024.0,14.5,0000.0,0009.47,0005.57,0005.15
2024-01-25 07:31:00,SystemResetWarning,0826.8,4.99,000.00,022.6,021.6,000.0,031.0,023.9,14.4,0000.9,0009.56,0005.57,0005.15
2024-01-25 07:32:00,SystemResetWarning,0826.8,4.99,000.00,022.6,021.6,000.0,031.0,023.9,14.4,0000.8,0009.92,0005.56,0005.15
2024-01-25 07:33:00,SystemResetWarning,0826.8,5.00,000.00,022.6,021.6,000.0,031.0,023.9,14.4,0000.0,0010.59,0005.56,0005.12
2024-01-25 07:34:00,SystemResetWarning,0826.8,5.00,000.00,022.5,021.6,000.0,030.9,023.9,14.5,0000.2,0010.51,0005.54,0005.09
2024-01-25 07:35:00,SystemResetWarning,0826.8,5.01,000.00,022.5,021.5,000.0,030.9,023.8,14.5,0001.0,0011.30,0005.52,0005.06
2024-01-25 07:36:00,SystemResetWarning,0826.8,5.00,000.00,022.5,021.5,000.0,030.9,023.8,14.6,0001.0,0012.80,0005.48,0005.01
2024-01-25 07:37:00,SystemResetWarning,0826.8,5.00,000.00,022.5,021.4,000.0,030.9,023.9,14.8,0000.0,0012.74,0005.43,0004.95
2024-01-25 07:38:00,SystemResetWarning,0826.8,5.00,000.00,022.5,021.5,000.0,030.9,023.9,14.8,0000.2,0012.63,0005.36,0004.92
2024-01-25 07:39:00,SystemResetWarning,0826.8,5.00,000.00,022.5,021.5,000.0,030.9,023.9,14.7,0000.0,0012.65,0005.34,0004.89
2024-01-25 07:40:00,SystemResetWarning,0826.8,5.00,000.00,022.5,021.5,000.0,030.9,023.9,14.7,0000.0,0012.83,0005.35,0004.88
2024-01-25 07:41:00,SystemResetWarning,0826.8,5.01,000.00,022.5,021.5,000.0,030.9,023.9,14.6,0000.8,0013.48,0005.34,0004.90
2024-01-25 07:42:00,SystemResetWarning,0826.7,5.00,000.00,022.5,021.5,000.0,030.9,023.9,14.6,0000.4,0013.63,0005.29,0004.87
2024-01-25 07:43:00,SystemResetWarning,0826.7,5.00,000.00,022.5,021.5,000.0,030.9,023.9,14.7,0000.0,0013.38,0005.19,0004.79
2024-01-25 07:44:00,SystemResetWarning,0826.6,5.00,000.00,022.5,021.5,000.0,030.9,023.9,14.8,0000.0,0012.66,0005.05,0004.68
2024-01-25 07:45:00,SystemResetWarning,0826.6,5.00,000.00,022.5,021.5,000.0,030.9,023.9,15.0,0000.0,0012.82,0004.98,0004.60
2024-01-25 07:46:00,SystemResetWarning,0826.5,5.00,000.00,022.5,021.5,000.0,030.9,023.9,15.1,0000.0,0011.93,0004.90,0004.55
2024-01-25 07:47:00,SystemResetWarning,0826.6,5.01,000.00,022.4,021.5,000.0,030.9,023.8,15.2,0000.0,0010.06,0004.82,0004.51
2024-01-25 07:48:00,SystemResetWarning,0826.6,5.00,000.00,022.4,021.5,000.0,030.9,023.8,15.1,0000.0,0009.86,0004.79,0004.50
2024-01-25 07:49:00,SystemResetWarning,0826.6,5.00,000.00,022.4,021.5,000.0,030.8,023.9,14.7,0000.0,0009.89,0004.77,0004.48
2024-01-25 07:50:00,SystemResetWarning,0826.6,5.00,000.00,022.4,021.5,000.0,030.8,023.8,14.6,0000.0,0009.85,0004.74,0004.46
2024-01-25 07:51:00,SystemResetWarning,0826.6,5.00,000.00,022.4,021.5,000.0,030.8,023.8,14.6,0000.0,0009.68,0004.73,0004.48
2024-01-25 07:52:00,SystemResetWarning,0826.6,5.00,000.00,022.4,021.5,000.0,030.8,023.8,14.8,0000.0,0008.84,0004.71,0004.45
2024-01-25 07:53:00,SystemResetWarning,0826.6,5.00,000.00,022.4,021.5,000.0,030.8,023.9,15.0,0000.0,0008.43,0004.56,0004.30
2024-01-25 07:54:00,SystemResetWarning,0826.6,5.00,000.00,022.4,021.5,000.0,030.8,023.9,15.1,0000.0,0008.06,0004.41,0004.16
2024-01-25 07:55:00,SystemResetWarning,0826.6,5.00,000.00,022.4,021.5,000.0,030.8,023.9,15.2,0000.0,0007.92,0004.32,0004.08
2024-01-25 07:56:00,SystemResetWarning,0826.6,5.00,000.00,022.4,021.5,000.0,030.8,023.8,15.2,0000.0,0006.89,0004.15,0003.96
2024-01-25 07:57:00,SystemResetWarning,0826.6,4.99,000.00,022.4,021.5,000.0,030.8,023.8,15.0,0000.0,0006.83,0003.98,0003.80
2024-01-25 07:58:00,SystemResetWarning,0826.6,5.00,000.00,022.4,021.4,000.0,030.8,023.8,14.9,0000.0,0006.63,0003.84,0003.67
2024-01-25 07:59:00,SystemResetWarning,0826.6,5.00,000.00,022.4,021.4,000.0,030.8,023.8,15.3,0000.0,0006.34,0003.69,0003.52
